STARLINK-5449, 54780

Orbit data source: Space-Track

STARLINK-5449, 54780 is a payload satellite owned by SpaceX/Seattle (US) in LEO that was launched on Sat, 17 Dec 2022 UTC via an FALCON 9 launch vehicle from the Air Force Eastern Test Range (AFETR). Payload-class satellites include a variety of spacecraft equipped with specific instruments for various scientific and technological missions. These include communications satellites like Starlink; space stations such as the ISS; scientific satellites like the Hubble; Earth observation satellites from companies like Planet Labs, Umbra, and HawkEye 360; GPS; miniature CubeSats for education and research; and military/defense satellites.

Loading next visibility...
Identifier
54780, 2022-175Y
Orbit
LEO
Country
Flag of USUS
Related business
Manufacturer
SpaceX/Seattle
Mission
Operational Commercial Communications
Bus & Motor
STARLINK, Unknown motor
Mass
305 kg wet, ~290 kg dry
Launch date (UTC)
2022-12-17 (4 years ago)
Launch vehicle
FALCON 9
Launch site
Air Force Eastern Test Range (AFETR)
Object type
Payload
Rocket body
Debris
Shape & HBR
Box + 1 Pan, 10.1 m
Radar Cross Section
13.562 m², Large (>1 m²)

Expand to show TLE details & history
Last TLE update: 3 days ago

TLE from 3 days ago
0 STARLINK-5449
1 54780U 22175Y   26170.71794829 -.00000072  00000-0  13578-4 0  9992
2 54780  53.1599 290.8883 0001119  85.9436 274.1683 15.08833425195536
Epoch: 2026-06-19T17:13Z
TLE epoch observation values (Epoch: 2026-06-19T17:13:50.732Z)
Latitude
-0.00003°
Longitude
124.48398°
Altitude
540.599 km
Speed
7.593 km/s
True Right ascension
19h 23m 33s
True Declination
0° 00' 00"
Sunlit
Object was in full shadow at epoch
Visualization orbit readout
Latitude
Unknown
Longitude
Unknown
Altitude
Unknown
Speed
Unknown
Apparent Right ascension
Unknown
Apparent Declination
Unknown
Sunlit
N/A
Visualization observer readout
Local Sidereal Time
21:31:04
Azimuth
Unknown
Elevation
Unknown
Doppler factor
Unknown
Orbital elements
Apogee altitude
540.792 km
Perigee altitude
539.243 km
Semi-major axis
6,918.155 km
Eccentricity
0.00011
Inclination
53.1599°
RAAN
290.8883°
Arg. of periapsis
85.9436°
True anomaly
274.15551°
Mean anomaly
274.1683°
Eccentric anomaly
274.16191°
Mean motion
3.77188 °/min
Orbital period
95.44 mins
BSTAR
0.000013578
Loading maneuver chart data...
Computing Atmospheric mass density...
Loading historical data...
Loading historical data...
Loading historical data...
Loading historical data...
Loading historical data...
Loading historical data...
Loading historical data...

Documentation

Showing up to 5 results
|